#timestamp,LO_Frequency,Hit,StdDev 
1578322815.7,286046996.5,N
1578322835.5,286046999.9,N
1578322855.4,286046998.7,N
1578322875.2,286047000.4,N
1578322895.0,286047002.4,N
1578322895.9,286047002.4,N
1578322915.8,286047001.1,N
1578322935.6,286046998.8,N
1578322955.5,286046997.1,N
1578322975.3,286047000.8,N
1578322995.1,286047002.8,N
1578323015.9,286046998.2,N
1578323035.7,286047000.4,N
1578323055.5,286046998.1,N
1578323075.4,286046999.0,N
1578323095.2,286047001.1,N
1578323115.0,286046998.4,N
1578323116.0,286046998.4,N
1578323135.8,286046998.0,N
1578323155.6,286046995.2,N
1578323175.5,286046999.1,N
1578323195.3,286046996.6,N
1578323215.1,286046997.7,N
1578323235.9,286046996.8,N
1578323255.7,286046996.7,N
1578323275.5,286046998.8,N
1578323295.4,286047001.1,N
1578323315.2,286046998.6,N
1578323335.1,286046998.3,N
1578323336.0,286046998.3,N
1578323355.8,286046997.3,N
1578323375.6,286046997.1,N
1578323395.5,286046999.2,N
1578323415.3,286046998.1,N
1578323435.1,286047000.8,N
1578323455.9,286046999.0,N
1578323475.7,286046999.3,N
1578323495.6,286046997.0,N
1578323515.4,286046996.7,N
1578323535.2,286046998.6,N
1578323555.1,286046998.8,N
1578323556.0,286046998.8,N
1578323575.8,286047001.1,N
1578323595.6,286046997.6,N
1578323615.5,286046996.7,N
1578323635.3,286046995.0,Y
1578323655.2,286046996.9,P
1578323675.9,286046998.4,N
1578323695.7,286046995.4,P
1578323715.6,286046995.4,Y
1578323735.4,286047002.2,P
1578323755.3,286047002.6,N
1578323775.1,286046998.4,N
1578323776.0,286046998.4,N
1578323795.8,286046999.0,N
1578323815.7,286046999.4,N
1578323835.5,286047000.6,N
1578323855.3,286047000.6,N
1578323875.2,286047000.7,N
1578323895.0,286047002.0,N
1578323895.9,286047002.0,N
1578323915.8,286047002.7,N
1578323935.6,286047001.8,N
1578323955.4,286047002.4,N
1578323975.3,286047002.8,N
1578323995.1,286047000.1,N
1578324015.8,286047001.3,N
1578324035.7,286047001.3,N
1578324055.5,286047002.0,N
1578324075.4,286047001.6,N
1578324095.2,286047002.4,N
1578324115.0,286046998.2,N
1578324115.9,286046998.2,N
1578324135.8,286046999.9,N
1578324155.6,286047002.7,N
1578324175.4,286047002.4,N
1578324195.3,286047000.4,N
1578324215.1,286046998.6,N
1578324235.9,286046998.7,N
1578324255.7,286046999.4,N
1578324275.5,286046997.3,N
1578324295.4,286046995.4,N
1578324315.2,286046995.5,N
1578324335.0,286046993.7,Y
1578324335.9,286046993.7,P
1578324355.8,286046996.3,N
1578324375.6,286046997.3,N
1578324395.5,286046993.8,N
1578324415.3,286046995.0,N
1578324435.1,286046996.8,N
1578324455.9,286046997.8,N
1578324475.7,286046999.4,N
1578324495.5,286046997.6,N
1578324515.4,286046997.9,N
1578324535.2,286046997.2,N
1578324555.1,286046998.5,N
1578324556.0,286046998.5,N
1578324575.8,286046998.8,N
1578324595.6,286047001.0,N
1578324615.5,286046999.9,N
1578324635.3,286046999.5,N
1578324655.1,286046999.5,N
1578324675.9,286046998.8,N
1578324695.7,286046994.9,N
1578324715.6,286046996.8,N
1578324735.4,286046995.5,N
1578324755.2,286046996.1,N
1578324775.1,286046994.1,Y
1578324776.0,286046994.1,P
1578324795.8,286046997.5,N
1578324815.7,286046998.6,N
1578324835.5,286046998.8,N
1578324855.3,286046997.8,N
1578324875.2,286046997.2,N
1578324895.0,286046996.9,N
1578324895.9,286046996.9,N
1578324915.8,286046997.6,N
1578324935.6,286046997.8,N
1578324955.4,286046994.9,Y
1578324975.3,286046998.8,P
1578324995.1,286046999.3,N
1578325015.8,286046999.4,N
1578325035.7,286046995.5,Y
1578325055.5,286046995.2,P
1578325075.4,286046993.7,P
1578325095.2,286046996.0,N
1578325115.0,286046996.2,N
1578325115.9,286046996.2,N
1578325135.8,286046997.7,N
1578325155.6,286046995.3,Y
1578325175.5,286046998.5,P
1578325195.3,286047000.8,N
1578325215.1,286047001.1,N
1578325235.9,286047002.6,N
1578325255.7,286047004.4,N
1578325275.6,286047002.5,N
1578325295.4,286047002.1,N
1578325315.2,286047002.1,N
1578325335.1,286047001.6,N
1578325336.0,286047001.6,N
1578325355.8,286047003.6,N
1578325375.6,286047004.1,N
1578325395.5,286047003.4,N
1578325415.3,286047004.6,N
1578325435.2,286047002.9,N
1578325455.9,286047004.8,N
1578325475.7,286047003.5,N
1578325495.6,286047004.0,N
1578325515.4,286047006.0,N
1578325535.2,286047003.1,N
1578325555.1,286047001.4,N
1578325556.0,286047001.4,N
1578325575.8,286047003.7,N
1578325595.7,286047005.0,N
1578325615.5,286047003.1,N
1578325635.3,286047005.7,N
1578325655.2,286047005.7,N
1578325675.9,286047003.1,N
1578325695.7,286047004.1,N
1578325715.6,286047004.2,N
1578325735.4,286046999.8,N
1578325755.3,286047005.9,Y
1578325775.1,286047004.4,P
1578325776.0,286047004.4,P
1578325795.8,286047001.9,P
1578325815.7,286047005.6,Y
1578325835.5,286047001.1,P
1578325855.3,286047002.8,N
1578325875.2,286047000.9,N
1578325895.0,286047000.5,N
1578325895.9,286047000.5,N
1578325915.8,286046998.5,N
1578325935.6,286046998.7,N
1578325955.4,286046995.8,N
1578325975.3,286046992.2,Y
1578325995.1,286046990.2,P
1578326015.8,286046990.4,N
1578326035.7,286046990.8,N
1578326055.5,286046992.3,N
1578326075.4,286046994.7,N
1578326095.2,286046992.5,N
1578326115.0,286046992.8,N
1578326115.9,286046992.8,N
1578326135.8,286046992.7,N
1578326155.6,286046990.5,Y
1578326175.4,286046998.5,P
1578326195.3,286047002.8,N
1578326215.1,286046999.9,N
1578326235.9,286047003.2,N
1578326255.7,286047003.9,N
1578326275.5,286047003.9,N
1578326295.4,286047005.0,N
1578326315.2,286047003.0,N
1578326335.0,286047003.1,N
1578326336.0,286047003.1,N
1578326355.8,286047005.1,N
1578326375.6,286047005.2,N
1578326395.5,286047005.9,N
